User: anonymous   Login
Location: Berg
(47.2344°N, 9.5296°E)
Time: 19:21:34
(UTC+00:00)
Language:

STRAND 1 - Orbit

View from above orbital plane
View from above orbital plane
View from above satellite
View from above satellite

Ground track
Ground track

The orbit data is extracted from the following two-line orbital elements,

1 39090U 13009E   21341.44559188  .00000122  00000-0  57562-4 0  9993
2 39090  98.4124 179.4621 0010035 119.7963 240.4221 14.35212491459876
Epoch (UTC): 07 December 2021 10:41:39
Eccentricity: 0.0010035
inclination: 98.4124°
perigee height: 767 km
apogee height: 781 km
right ascension of ascending node: 179.4621°
argument of perigee: 119.7963°
revolutions per day: 14.35212491
mean anomaly at epoch: 240.4221°
orbit number at epoch: 45987

The dashed part of the orbit path shows where the satellite is in the earth's shadow,  

DLR